[[{"header":{"parameterUnit":"m.s-1","parameterCategory":2,"la1":30.2991,"la2":30.254,"lo1":-89.0895,"lo2":-89.0444,"dy":0.0017,"dx":0.0017,"nx":28,"ny":28,"refTime":"2025-01-01T03:00:00:Z","depth":"0","parameterNumber":2,"parameterNumberName":"U-component_of_CURRENTS"},"data":[0,0,0,0,0,0,0,0,0,0,0,0,0,0,0,0,0,0,0,0,0,0,0,0,0,0,0,0,0,0,0,0,0,0,0,0,0,0,0,0,0,0,0,0,0,0,0,0,0,0,0,0,0,0,0,0,0,0,0.2772,0.2773,0,0.2809,0.2809,0.281,0.2811,0.2811,0.2811,0.2811,0.28,0.28,0.28,0,0,0,0,0,0,0,0,0,0,0,0,0,0.2696,0.2697,0.2772,0.2773,0.2774,0.2809,0.2809,0.281,0.2811,0.2811,0.2811,0.2811,0.28,0.28,0.28,0,0,0,0,0,0,0,0,0,0,0,0,0,0.2727,0.2697,0.2772,0.2781,0.2783,0.2809,0.2809,0.281,0.2811,0.2811,0.2811,0.281,0.28,0.28,0.28,0.2802,0,0,0.2799,0.2799,0,0,0,0,0,0,0,0,0.2726,0.273,0.2779,0.2781,0.2782,0.2808,0.2779,0.2806,0.2811,0.2797,0.2811,0.281,0.2801,0.28,0.2804,0.2802,0.2801,0.2799,0.2799,0.2799,0.2799,0,0,0,0,0,0,0,0.2723,0.2728,0.2783,0.278,0.2782,0.2781,0.2785,0.2784,0.2796,0.2798,0.2799,0.2809,0.2801,0.2804,0.2803,0.2801,0.2799,0.2799,0.2798,0.2798,0.2839,0.2841,0,0,0,0,0,0,0.2726,0.2726,0.2782,0.2785,0.2757,0.2783,0.2787,0.2797,0.2797,0.2798,0.2809,0.2809,0.2804,0.2804,0.2803,0.2842,0.2799,0.2798,0.2798,0.2838,0.284,0.2841,0,0,0,0,0,0,0.2725,0.2731,0.2781,0.2759,0.2766,0.2785,0.2796,0.2798,0.2805,0.2806,0.2806,0.2813,0.2804,0.2803,0.2814,0.284,0.2798,0.2798,0.2837,0.2839,0.284,0.2897,0,0,0,0,0,0,0.2722,0.273,0.2735,0.2759,0.2767,0.2804,0.2797,0.2799,0.2812,0.2812,0.281,0.2809,0.2804,0.2815,0.2814,0.2839,0.2798,0.2835,0.2838,0.284,0.2893,0.29,0.2906,0,0,0,0,0,0.2719,0.2728,0.2735,0.2742,0.2774,0.2805,0.2809,0.2819,0.2813,0.2822,0.2823,0.2809,0.2829,0.2816,0.2814,0.284,0.2834,0.2837,0.284,0.2891,0.2899,0.2906,0,0,0,0,0,0,0.2688,0.273,0.2738,0.2756,0.2783,0.2807,0.2816,0.2822,0.283,0.2828,0.282,0.282,0.2843,0.2832,0.2817,0.286,0.2831,0.2834,0.287,0.2878,0.2884,0.2891,0.2798,0,0,0,0,0,0.2687,0.2708,0.2745,0.2757,0.2774,0.2795,0.2806,0.2817,0.2831,0.2834,0.2834,0.2838,0.2854,0.2857,0.2864,0.2881,0.2894,0.2898,0.2905,0.291,0.2916,0.2961,0.2972,0.285,0.285,0.285,0,0,0.2677,0.2703,0.2713,0.2753,0.2773,0.2805,0.28,0.2826,0.285,0.2831,0.2855,0.286,0.2864,0.2891,0.29,0.2884,0.2956,0.2914,0.2918,0.2921,0.2965,0.2977,0.2987,0.2852,0.2852,0.2851,0,0,0.2675,0.2695,0.2716,0.2744,0.2785,0.2808,0.2817,0.2848,0.2862,0.2887,0.2888,0.2909,0.2917,0.2937,0.2945,0.2989,0.299,0.299,0.3026,0.307,0.308,0.309,0.3139,0.3152,0.2991,0.2991,0.2991,0,0.2661,0.2694,0.2725,0.2756,0.278,0.2811,0.284,0.2866,0.2895,0.2913,0.2901,0.2945,0.2944,0.2993,0.3011,0.3005,0.303,0.2996,0.3079,0.3088,0.3097,0.3145,0.3159,0.2994,0.2994,0.2994,0.2993,0,0.2682,0.2708,0.2724,0.2779,0.2809,0.2838,0.2886,0.2915,0.2932,0.2957,0.3003,0.3012,0.3039,0.3047,0.3041,0.3106,0.3106,0.3085,0.306,0.3113,0.316,0.3173,0.2999,0.2997,0.2997,0.2996,0,0,0.2647,0.2725,0.2728,0.2758,0.2823,0.2851,0.2904,0.2963,0.3001,0.303,0.308,0.311,0.3117,0.3128,0.3131,0.3166,0.3252,0.3153,0.3154,0.3203,0.3363,0.3338,0.335,0.3247,0.3249,0.3251,0.3377,0,0.2653,0.271,0.2749,0.2802,0.2839,0.2889,0.2937,0.2993,0.3037,0.3095,0.3127,0.3173,0.315,0.317,0.3205,0.3242,0.3287,0.322,0.3302,0.3305,0.3277,0.3364,0.3271,0.3373,0.339,0.3392,0.3394,0,0.2652,0.2699,0.2749,0.2826,0.2846,0.2882,0.2967,0.3018,0.3109,0.3143,0.3198,0.3228,0.3299,0.3264,0.3362,0.3322,0.335,0.3371,0.3376,0.334,0.3305,0.332,0.3397,0.3341,0.3414,0.3413,0.3411,0,0.2611,0.269,0.2731,0.2757,0.2853,0.2883,0.2937,0.3025,0.3077,0.3182,0.3231,0.3307,0.3358,0.3406,0.3457,0.3418,0.3566,0.3514,0.3522,0.3521,0.3451,0.3439,0.3481,0.3588,0.3588,0.3588,0.3587,0,0.2596,0.2624,0.2715,0.2739,0.2782,0.2866,0.2924,0.2987,0.3097,0.3154,0.3253,0.3314,0.3395,0.3484,0.3507,0.3575,0.3612,0.3556,0.356,0.3469,0.3458,0.341,0.3378,0.3592,0.3591,0.359,0.359,0,0.2525,0.2593,0.2634,0.2733,0.2759,0.2787,0.2895,0.2944,0.3067,0.315,0.319,0.3347,0.3458,0.3548,0.3647,0.3643,0.362,0.3714,0.3609,0.3598,0.3507,0.3482,0.3401,0.3282,0.3734,0.3735,0.3735,0,0.2487,0.2509,0.2593,0.2613,0.265,0.2714,0.2755,0.2892,0.295,0.3149,0.3183,0.3354,0.3442,0.3625,0.3672,0.3753,0.3636,0.3693,0.3586,0.3518,0.3494,0.3345,0.3238,0.3528,0.3527,0.3526,0.3525,0,0.2408,0.2436,0.2472,0.2514,0.2552,0.2596,0.2674,0.2722,0.2884,0.2981,0.3122,0.3231,0.3445,0.351,0.3649,0.3671,0.3531,0.3667,0.3625,0.337,0.3182,0.3064,0.3438,0.3514,0.3515,0.3516,0.3516,0.3517,0.232,0.2317,0.2368,0.2393,0.2436,0.2462,0.2467,0.2574,0.2659,0.2787,0.2969,0.3103,0.3329,0.3517,0.3526,0.3524,0.3453,0.3438,0.3429,0.3296,0.3121,0.3477,0.353,0.3532,0.3533,0.3533,0.3534,0,0.2204,0.2225,0.2249,0.2275,0.2273,0.2336,0.2395,0.2395,0.2445,0.2622,0.2746,0.2987,0.3126,0.3287,0.3422,0.3331,0.3142,0.3246,0.3023,0.2936,0.3304,0.3235,0.319,0.319,0.319,0.319,0.319,0.319,0.2143,0.2126,0.2146,0.2106,0.2124,0.2085,0.209,0.2118,0.2221,0.2355,0.25,0.2678,0.306,0.3326,0.3325,0.3232,0.2965,0.2854,0.2799,0.31,0.3116,0.3131,0.306,0.2979,0.2978,0.2299,0.2294,0.2291]},{"header":{"parameterUnit":"m.s-1","parameterCategory":2,"la1":30.2991,"la2":30.254,"lo1":-89.0895,"lo2":-89.0444,"dy":0.0017,"dx":0.0017,"nx":28,"ny":28,"refTime":"2025-01-01T03:00:00:Z","depth":"0","parameterNumber":3,"parameterNumberName":"V-component_of_CURRENTS"},"data":[0,0,0,0,0,0,0,0,0,0,0,0,0,0,0,0,0,0,0,0,0,0,0,0,0,0,0,0,0,0,0,0,0,0,0,0,0,0,0,0,0,0,0,0,0,0,0,0,0,0,0,0,0,0,0,0,0,0,-0.0436,-0.0437,0,-0.0503,-0.0504,-0.0504,-0.0553,-0.0553,-0.0553,-0.0554,-0.0645,-0.0647,-0.0649,0,0,0,0,0,0,0,0,0,0,0,0,0,-0.0396,-0.0396,-0.0436,-0.0437,-0.0438,-0.0503,-0.0504,-0.0505,-0.0553,-0.0553,-0.0553,-0.0554,-0.0644,-0.0646,-0.0649,0,0,0,0,0,0,0,0,0,0,0,0,0,-0.0434,-0.0397,-0.0436,-0.0468,-0.0472,-0.0502,-0.0504,-0.0505,-0.0553,-0.0553,-0.0553,-0.0554,-0.0643,-0.0646,-0.0649,-0.0661,0,0,-0.0659,-0.0661,0,0,0,0,0,0,0,0,-0.0432,-0.0436,-0.0463,-0.0466,-0.047,-0.0519,-0.0523,-0.0558,-0.0553,-0.0523,-0.0554,-0.0554,-0.0604,-0.061,-0.0623,-0.0665,-0.0669,-0.0659,-0.0661,-0.0663,-0.0664,0,0,0,0,0,0,0,-0.0429,-0.0433,-0.0464,-0.0464,-0.0468,-0.0495,-0.0501,-0.053,-0.0562,-0.0526,-0.0529,-0.0534,-0.0606,-0.062,-0.0626,-0.067,-0.0659,-0.0662,-0.0664,-0.0666,-0.0744,-0.0745,0,0,0,0,0,0,-0.0416,-0.0431,-0.0462,-0.0466,-0.045,-0.0495,-0.0502,-0.0504,-0.0561,-0.057,-0.0534,-0.0536,-0.0614,-0.0622,-0.0629,-0.0656,-0.0663,-0.0666,-0.0668,-0.0744,-0.0745,-0.0745,0,0,0,0,0,0,-0.0414,-0.0417,-0.0459,-0.0449,-0.0456,-0.0495,-0.0497,-0.0505,-0.0519,-0.0567,-0.0576,-0.054,-0.0615,-0.0625,-0.0655,-0.0659,-0.0667,-0.067,-0.0744,-0.0744,-0.0745,-0.0703,0,0,0,0,0,0,-0.0413,-0.0417,-0.0414,-0.0448,-0.0456,-0.0471,-0.0497,-0.0506,-0.0521,-0.0524,-0.0575,-0.0584,-0.0616,-0.065,-0.0659,-0.0664,-0.0673,-0.0744,-0.0744,-0.0745,-0.0704,-0.0702,-0.0699,0,0,0,0,0,-0.0411,-0.04,-0.0413,-0.0417,-0.0451,-0.0471,-0.0477,-0.0508,-0.052,-0.0523,-0.0559,-0.0582,-0.0658,-0.0653,-0.0663,-0.0669,-0.0744,-0.0744,-0.0745,-0.0705,-0.0702,-0.07,0,0,0,0,0,0,-0.0373,-0.0405,-0.042,-0.0418,-0.0441,-0.0478,-0.048,-0.0502,-0.0533,-0.0536,-0.0583,-0.0595,-0.0625,-0.065,-0.0643,-0.0693,-0.0705,-0.0708,-0.0672,-0.067,-0.0667,-0.0643,-0.0675,0,0,0,0,0,-0.0365,-0.0369,-0.0402,-0.0398,-0.0408,-0.0443,-0.0455,-0.0475,-0.0506,-0.052,-0.0557,-0.0597,-0.0634,-0.0653,-0.0687,-0.0711,-0.0731,-0.0722,-0.072,-0.0718,-0.0705,-0.0752,-0.0752,-0.0746,-0.0746,-0.0746,0,0,-0.0349,-0.0365,-0.0368,-0.0391,-0.041,-0.0418,-0.0452,-0.0462,-0.047,-0.0524,-0.0546,-0.0589,-0.0638,-0.0669,-0.0684,-0.069,-0.0727,-0.0718,-0.0716,-0.0704,-0.0752,-0.0753,-0.0753,-0.0746,-0.0746,-0.0746,0,0,-0.0314,-0.0332,-0.0325,-0.0342,-0.0366,-0.0392,-0.0392,-0.0429,-0.0449,-0.0476,-0.052,-0.0561,-0.0614,-0.0653,-0.0679,-0.0683,-0.0714,-0.0697,-0.0667,-0.0713,-0.0713,-0.0714,-0.0725,-0.0727,-0.0696,-0.0696,-0.0696,0,-0.0293,-0.0289,-0.0325,-0.0321,-0.0326,-0.0376,-0.0366,-0.0396,-0.0439,-0.045,-0.0475,-0.0559,-0.0606,-0.0646,-0.0654,-0.0678,-0.0696,-0.0673,-0.0709,-0.071,-0.0712,-0.0723,-0.0726,-0.0694,-0.0694,-0.0694,-0.0695,0,-0.0258,-0.0255,-0.0248,-0.0264,-0.0276,-0.0274,-0.0316,-0.0332,-0.0365,-0.04,-0.0443,-0.0514,-0.056,-0.0592,-0.0627,-0.0662,-0.0668,-0.07,-0.0712,-0.071,-0.0722,-0.0726,-0.0691,-0.0692,-0.0692,-0.0693,0,0,-0.0201,-0.0221,-0.0216,-0.021,-0.0243,-0.0244,-0.0258,-0.0283,-0.028,-0.035,-0.0356,-0.0449,-0.0489,-0.0521,-0.0578,-0.0626,-0.0661,-0.0663,-0.0667,-0.0666,-0.0736,-0.0688,-0.0687,-0.0703,-0.0704,-0.0705,-0.0734,0,-0.0159,-0.0135,-0.0161,-0.0137,-0.0126,-0.017,-0.017,-0.0201,-0.024,-0.0261,-0.035,-0.0382,-0.0463,-0.048,-0.0546,-0.0627,-0.0671,-0.0648,-0.0744,-0.0746,-0.0699,-0.0691,-0.067,-0.069,-0.0738,-0.0738,-0.0739,0,-0.0109,-0.0099,-0.0065,-0.0061,-0.0059,-0.0054,-0.0054,-0.0066,-0.0117,-0.0148,-0.0211,-0.0273,-0.0352,-0.0421,-0.0561,-0.0542,-0.0631,-0.0702,-0.0705,-0.0675,-0.0705,-0.0704,-0.0695,-0.0869,-0.0745,-0.0745,-0.0744,0,-0.0035,-0.0027,0.0007,0.0007,-0.0001,0.0014,0.0006,-0.0024,-0.0011,-0.0073,-0.0068,-0.0185,-0.0214,-0.0362,-0.0503,-0.0537,-0.0642,-0.0709,-0.0748,-0.0745,-0.0752,-0.0747,-0.0914,-0.0808,-0.0808,-0.0808,-0.0808,0,0.0027,0.0058,0.0047,0.0069,0.0122,0.0087,0.0136,0.0108,0.0099,0.0131,-0.0001,0.0016,-0.0201,-0.0285,-0.0454,-0.0585,-0.0605,-0.0728,-0.0751,-0.0733,-0.0727,-0.0897,-0.1012,-0.0809,-0.0809,-0.0809,-0.0808,0,0.0111,0.0099,0.0143,0.015,0.0161,0.02,0.0232,0.0268,0.0236,0.0277,0.027,0.0183,0.0079,-0.0121,-0.0325,-0.048,-0.073,-0.0683,-0.0623,-0.0638,-0.0845,-0.0957,-0.1137,-0.1204,-0.0742,-0.0741,-0.0741,0,0.0156,0.0187,0.0218,0.0259,0.0269,0.0317,0.0362,0.0343,0.0388,0.0395,0.0436,0.0365,0.0343,0.0079,-0.0205,-0.0462,-0.0667,-0.0618,-0.0693,-0.0837,-0.0981,-0.1074,-0.1125,-0.0687,-0.0686,-0.0685,-0.0684,0,0.0246,0.0256,0.0292,0.0376,0.043,0.0489,0.0548,0.0613,0.0608,0.0654,0.0723,0.0715,0.0479,0.0259,-0.0085,-0.0296,-0.0738,-0.0603,-0.0795,-0.0974,-0.1048,-0.1128,-0.0669,-0.0675,-0.0676,-0.0677,-0.0677,-0.0678,0.0321,0.0365,0.0416,0.0499,0.0564,0.0658,0.0729,0.0808,0.0909,0.0994,0.097,0.0993,0.0643,0.019,-0.0102,-0.0623,-0.0668,-0.0808,-0.0935,-0.1017,-0.108,-0.0565,-0.0572,-0.0572,-0.0572,-0.0572,-0.0573,0,0.0411,0.0455,0.0537,0.0627,0.0717,0.0729,0.0854,0.0936,0.1081,0.1174,0.1241,0.1107,0.0669,0.0182,-0.0502,-0.0887,-0.1068,-0.1121,-0.1291,-0.1331,-0.0909,-0.0903,-0.093,-0.093,-0.0929,-0.0929,-0.0929,-0.0929,0.046,0.0551,0.0585,0.0741,0.0812,0.0933,0.1011,0.1142,0.1241,0.1378,0.1414,0.1411,0.1063,-0.0192,-0.1054,-0.1278,-0.1585,-0.1645,-0.1788,-0.155,-0.1532,-0.1515,-0.1537,-0.1696,-0.1697,-0.2154,-0.2159,-0.2163]}],[{"header":{"parameterUnit":"m.s-1","parameterCategory":2,"la1":30.2991,"la2":30.254,"lo1":-89.0895,"lo2":-89.0444,"dy":0.0017,"dx":0.0017,"nx":28,"ny":28,"refTime":"2025-01-01T03:00:00:Z","depth":"2","parameterNumber":2,"parameterNumberName":"U-component_of_CURRENTS"},"data":[0,0,0,0,0,0,0,0,0,0,0,0,0,0,0,0,0,0,0,0,0,0,0,0,0,0,0,0,0,0,0,0,0,0,0,0,0,0,0,0,0,0,0,0,0,0,0,0,0,0,0,0,0,0,0,0,0,0,0.2533,0.2533,0,0.2556,0.2556,0.2557,0.2597,0.2597,0.2598,0.2598,0.2611,0.261,0.261,0,0,0,0,0,0,0,0,0,0,0,0,0,0.2469,0.2471,0.2533,0.2533,0.2533,0.2556,0.2556,0.2557,0.2596,0.2597,0.2598,0.2599,0.2611,0.2611,0.261,0,0,0,0,0,0,0,0,0,0,0,0,0,0.2497,0.2471,0.2533,0.2555,0.2557,0.2556,0.2556,0.2557,0.2596,0.2597,0.2598,0.2599,0.2611,0.2611,0.261,0.2589,0,0,0.2609,0.2609,0,0,0,0,0,0,0,0,0.2495,0.2499,0.2551,0.2553,0.2555,0.2573,0.2539,0.2567,0.2596,0.2583,0.2598,0.26,0.2596,0.2596,0.2601,0.259,0.259,0.2609,0.2609,0.2609,0.2609,0,0,0,0,0,0,0,0.2493,0.2498,0.2543,0.2551,0.2554,0.2545,0.255,0.2544,0.2584,0.2584,0.2587,0.2587,0.2597,0.2601,0.2601,0.2591,0.2609,0.2609,0.2608,0.2608,0.2673,0.2675,0,0,0,0,0,0,0.249,0.2497,0.2543,0.2544,0.2525,0.2545,0.2552,0.2568,0.2585,0.2588,0.2586,0.2588,0.2601,0.2602,0.2602,0.2663,0.2609,0.2608,0.2608,0.2671,0.2673,0.2675,0,0,0,0,0,0,0.2489,0.2494,0.2542,0.2518,0.2524,0.2546,0.2563,0.2568,0.2587,0.2586,0.259,0.2603,0.2602,0.2603,0.2626,0.2661,0.2608,0.2608,0.2669,0.2672,0.2674,0.273,0,0,0,0,0,0,0.2487,0.2494,0.2507,0.2519,0.2525,0.2565,0.2562,0.2567,0.2584,0.2588,0.2601,0.2603,0.2603,0.2626,0.2625,0.2659,0.2607,0.2666,0.267,0.2673,0.2726,0.2735,0.2742,0,0,0,0,0,0.2485,0.2494,0.2508,0.2513,0.2542,0.2565,0.2569,0.2587,0.2584,0.2605,0.2616,0.2603,0.265,0.2627,0.2625,0.266,0.2664,0.2669,0.2673,0.2722,0.2733,0.2742,0,0,0,0,0,0,0.2469,0.2499,0.2515,0.2533,0.256,0.2572,0.2584,0.2591,0.2614,0.262,0.2615,0.2618,0.2655,0.2649,0.2624,0.2693,0.2659,0.2664,0.2698,0.2708,0.2716,0.2727,0.2607,0,0,0,0,0,0.2473,0.2493,0.2521,0.2538,0.2552,0.2569,0.2579,0.2598,0.2614,0.2625,0.2631,0.2646,0.2668,0.268,0.2694,0.2718,0.2727,0.2745,0.2753,0.276,0.2771,0.2818,0.2831,0.269,0.269,0.269,0,0,0.2469,0.2488,0.25,0.2537,0.2556,0.2583,0.258,0.2607,0.2637,0.262,0.2659,0.2669,0.2681,0.2722,0.2739,0.2723,0.2807,0.2766,0.2771,0.2778,0.2824,0.2838,0.285,0.2693,0.2692,0.2692,0,0,0.2471,0.2496,0.2517,0.2545,0.2582,0.2596,0.2607,0.2636,0.2662,0.2696,0.2701,0.2734,0.2753,0.2781,0.2793,0.2851,0.2846,0.2859,0.2909,0.2956,0.2967,0.2978,0.301,0.3023,0.2866,0.2866,0.2866,0,0.2467,0.2501,0.2526,0.2558,0.2582,0.2604,0.2638,0.2664,0.2699,0.2725,0.2721,0.2781,0.2785,0.2846,0.2876,0.2869,0.2891,0.2867,0.2966,0.2976,0.2986,0.3016,0.303,0.2869,0.2869,0.2868,0.2868,0,0.2491,0.2523,0.2536,0.2589,0.2622,0.2651,0.2696,0.273,0.2753,0.278,0.2846,0.2864,0.2902,0.2916,0.2913,0.2993,0.2985,0.2967,0.2937,0.3004,0.3031,0.3044,0.2874,0.2873,0.2872,0.2871,0,0,0.2462,0.2539,0.2544,0.2578,0.2643,0.2669,0.2729,0.2788,0.2826,0.2873,0.293,0.2981,0.2994,0.301,0.3019,0.3065,0.315,0.3054,0.3055,0.3079,0.3254,0.3196,0.3204,0.3153,0.3156,0.3158,0.3246,0,0.2473,0.2532,0.2573,0.263,0.2665,0.2718,0.2769,0.2831,0.2879,0.2937,0.2987,0.3041,0.303,0.3059,0.3105,0.3139,0.3188,0.3128,0.3192,0.3194,0.3129,0.3218,0.2988,0.3043,0.3259,0.3261,0.3262,0,0.2478,0.252,0.2578,0.2659,0.268,0.2717,0.2806,0.2865,0.2956,0.2995,0.3064,0.3101,0.3185,0.3159,0.3262,0.3227,0.3252,0.3274,0.3277,0.3212,0.316,0.3013,0.3058,0.3284,0.3282,0.328,0.3279,0,0.2436,0.2518,0.2563,0.2592,0.2686,0.2725,0.2783,0.2878,0.2933,0.3045,0.3091,0.3182,0.3237,0.3293,0.3331,0.3315,0.343,0.3405,0.3376,0.3371,0.3182,0.3156,0.3483,0.3483,0.3483,0.3483,0.3482,0,0.2419,0.2452,0.2544,0.2566,0.2617,0.2711,0.2777,0.2845,0.2953,0.3009,0.312,0.3175,0.3278,0.3346,0.3369,0.3412,0.346,0.3409,0.3402,0.3195,0.3171,0.3377,0.3363,0.3486,0.3485,0.3485,0.3484,0,0.2352,0.2418,0.2464,0.2564,0.2594,0.2634,0.2751,0.28,0.2922,0.3003,0.3046,0.3196,0.3297,0.3374,0.3469,0.3457,0.3501,0.3495,0.3241,0.3204,0.3405,0.3393,0.3501,0.35,0.3499,0.3498,0.3498,0,0.2319,0.2341,0.2431,0.2456,0.2495,0.2571,0.2617,0.2753,0.2811,0.2991,0.302,0.3178,0.3248,0.3383,0.3411,0.3465,0.3494,0.3258,0.3188,0.3431,0.3413,0.3403,0.3393,0.296,0.2955,0.295,0.2947,0,0.2251,0.2284,0.2319,0.2369,0.2414,0.2462,0.2549,0.2583,0.2742,0.2826,0.2941,0.3031,0.3194,0.3168,0.3254,0.3243,0.3235,0.3179,0.3508,0.299,0.2927,0.2907,0.2914,0.2911,0.2914,0.2917,0.2919,0.2921,0.2184,0.2186,0.2237,0.2269,0.2318,0.2343,0.2351,0.2448,0.2522,0.2624,0.2772,0.2833,0.2931,0.2969,0.2911,0.2885,0.3107,0.2974,0.2983,0.2998,0.2919,0.2858,0.2813,0.2816,0.2819,0.2821,0.2823,0,0.2092,0.2114,0.2142,0.2176,0.2176,0.224,0.229,0.228,0.2318,0.244,0.2529,0.2413,0.2447,0.2524,0.2462,0.2508,0.2455,0.2389,0.2291,0.2332,0.2368,0.2252,0.1971,0.1968,0.1965,0.1962,0,0,0.2048,0.2036,0.2051,0.2024,0.2046,0.2015,0.2014,0.202,0.208,0.2087,0.2113,0.2323,0.2462,0.2163,0.217,0.2048,0.2154,0.1974,0.2671,0.2597,0.2627,0.274,0.2614,0,0,0,0,0]},{"header":{"parameterUnit":"m.s-1","parameterCategory":2,"la1":30.2991,"la2":30.254,"lo1":-89.0895,"lo2":-89.0444,"dy":0.0017,"dx":0.0017,"nx":28,"ny":28,"refTime":"2025-01-01T03:00:00:Z","depth":"2","parameterNumber":3,"parameterNumberName":"V-component_of_CURRENTS"},"data":[0,0,0,0,0,0,0,0,0,0,0,0,0,0,0,0,0,0,0,0,0,0,0,0,0,0,0,0,0,0,0,0,0,0,0,0,0,0,0,0,0,0,0,0,0,0,0,0,0,0,0,0,0,0,0,0,0,0,-0.0054,-0.0055,0,-0.0126,-0.0127,-0.0129,-0.0202,-0.0203,-0.0203,-0.0204,-0.0294,-0.0296,-0.0297,0,0,0,0,0,0,0,0,0,0,0,0,0,-0.0003,-0.0004,-0.0054,-0.0055,-0.0055,-0.0126,-0.0128,-0.0129,-0.0202,-0.0203,-0.0203,-0.0204,-0.0293,-0.0295,-0.0298,0,0,0,0,0,0,0,0,0,0,0,0,0,-0.0049,-0.0004,-0.0054,-0.0097,-0.0102,-0.0126,-0.0128,-0.0129,-0.0202,-0.0203,-0.0204,-0.0204,-0.0293,-0.0295,-0.0298,-0.0296,0,0,-0.0306,-0.0307,0,0,0,0,0,0,0,0,-0.0046,-0.0051,-0.0091,-0.0094,-0.0099,-0.0153,-0.0142,-0.0184,-0.0201,-0.0168,-0.0204,-0.0205,-0.0245,-0.0252,-0.0269,-0.03,-0.0304,-0.0306,-0.0308,-0.0309,-0.031,0,0,0,0,0,0,0,-0.0043,-0.0049,-0.0087,-0.0091,-0.0096,-0.0121,-0.0129,-0.0151,-0.0204,-0.0171,-0.0175,-0.0177,-0.0248,-0.0266,-0.0271,-0.0305,-0.0306,-0.0309,-0.031,-0.0312,-0.0393,-0.0393,0,0,0,0,0,0,-0.0024,-0.0045,-0.0085,-0.0089,-0.007,-0.0121,-0.013,-0.0138,-0.0203,-0.0213,-0.0176,-0.018,-0.0261,-0.0268,-0.0275,-0.0296,-0.0309,-0.0312,-0.0313,-0.0392,-0.0393,-0.0394,0,0,0,0,0,0,-0.0023,-0.0027,-0.0082,-0.0065,-0.0073,-0.012,-0.0129,-0.0139,-0.016,-0.0206,-0.0217,-0.0187,-0.0262,-0.0271,-0.0299,-0.03,-0.0313,-0.0315,-0.0392,-0.0393,-0.0393,-0.0327,0,0,0,0,0,0,-0.0021,-0.0026,-0.0028,-0.0064,-0.0073,-0.0093,-0.0128,-0.0139,-0.0157,-0.0164,-0.0219,-0.0229,-0.0263,-0.0295,-0.0302,-0.0304,-0.0318,-0.0391,-0.0392,-0.0393,-0.0328,-0.0325,-0.0322,0,0,0,0,0,-0.0019,-0.001,-0.0028,-0.0033,-0.0074,-0.0092,-0.01,-0.0138,-0.0157,-0.0163,-0.0203,-0.0227,-0.0307,-0.0296,-0.0305,-0.0308,-0.0391,-0.0392,-0.0393,-0.0329,-0.0326,-0.0322,0,0,0,0,0,0,0.0011,-0.0017,-0.0038,-0.0039,-0.0064,-0.0103,-0.0107,-0.0132,-0.0169,-0.0178,-0.0224,-0.0236,-0.0265,-0.0296,-0.0283,-0.0338,-0.0356,-0.0359,-0.0305,-0.0302,-0.0299,-0.0284,-0.032,0,0,0,0,0,0.0019,0.0016,-0.0017,-0.0018,-0.0027,-0.0067,-0.008,-0.0107,-0.014,-0.0158,-0.0196,-0.024,-0.0275,-0.0294,-0.0331,-0.035,-0.0376,-0.0363,-0.036,-0.0357,-0.0353,-0.0394,-0.0394,-0.0398,-0.0398,-0.0398,0,0,0.0029,0.0016,0.0012,-0.0012,-0.0035,-0.0038,-0.0078,-0.0093,-0.0101,-0.0159,-0.0183,-0.0227,-0.0278,-0.0307,-0.0323,-0.0332,-0.0368,-0.0358,-0.0355,-0.0353,-0.0395,-0.0395,-0.0394,-0.0398,-0.0398,-0.0398,0,0,0.006,0.0038,0.0046,0.0031,0.0006,-0.0016,-0.0016,-0.0057,-0.0083,-0.0108,-0.0156,-0.0195,-0.0249,-0.0285,-0.0309,-0.031,-0.035,-0.0333,-0.0304,-0.0344,-0.0343,-0.0343,-0.0361,-0.0363,-0.0332,-0.0332,-0.0332,0,0.0075,0.0078,0.0047,0.0052,0.0046,0.0,0.0008,-0.0018,-0.0066,-0.0079,-0.0109,-0.0192,-0.0236,-0.0265,-0.0279,-0.0301,-0.0329,-0.0307,-0.0337,-0.0338,-0.0339,-0.0358,-0.0361,-0.0329,-0.0329,-0.033,-0.033,0,0.0109,0.011,0.0118,0.0109,0.0096,0.0098,0.0061,0.0046,0.001,-0.0023,-0.0066,-0.0133,-0.0181,-0.0209,-0.0248,-0.0279,-0.0297,-0.0324,-0.0338,-0.0334,-0.0355,-0.0359,-0.0325,-0.0326,-0.0327,-0.0327,0,0,0.0151,0.0144,0.0146,0.0154,0.0126,0.0125,0.0117,0.0099,0.0104,0.0035,0.0028,-0.0057,-0.0101,-0.0133,-0.0189,-0.0236,-0.0269,-0.0287,-0.029,-0.0289,-0.0348,-0.0343,-0.0348,-0.0307,-0.0308,-0.0309,-0.0353,0,0.0189,0.0219,0.0198,0.0225,0.0237,0.0198,0.0204,0.0177,0.014,0.0122,0.004,0.0006,-0.0069,-0.0095,-0.0152,-0.0237,-0.0281,-0.0254,-0.0366,-0.0368,-0.0353,-0.0353,-0.0327,-0.0364,-0.0357,-0.0358,-0.0359,0,0.0229,0.0247,0.0278,0.0293,0.0295,0.0303,0.0304,0.0297,0.0257,0.0224,0.0166,0.0104,0.0031,-0.0038,-0.0172,-0.0155,-0.0248,-0.032,-0.0323,-0.0346,-0.0373,-0.0373,-0.0372,-0.0366,-0.0366,-0.0365,-0.0365,0,0.0284,0.0304,0.0335,0.0337,0.0344,0.0354,0.0353,0.0328,0.0339,0.0282,0.0282,0.0181,0.0142,0.0006,-0.0138,-0.0165,-0.028,-0.0329,-0.0408,-0.0407,-0.042,-0.0419,-0.0427,-0.0427,-0.0427,-0.0427,-0.0427,0,0.0338,0.0364,0.0366,0.0387,0.0436,0.0408,0.0448,0.0432,0.0425,0.0451,0.0336,0.0341,0.0145,0.0059,-0.0097,-0.0247,-0.0244,-0.0398,-0.0422,-0.0395,-0.0392,-0.0428,-0.0427,-0.0428,-0.0428,-0.0428,-0.0427,0,0.0392,0.0392,0.0432,0.0451,0.0463,0.0491,0.052,0.0555,0.0528,0.0559,0.0547,0.0466,0.0346,0.0167,-0.0032,-0.0171,-0.0329,-0.0385,-0.0327,-0.0344,-0.0444,-0.044,-0.0488,-0.0488,-0.0488,-0.0489,-0.0489,0,0.0421,0.0447,0.0483,0.0516,0.0527,0.0565,0.0606,0.0603,0.0644,0.0646,0.068,0.0584,0.0537,0.0266,0.0001,-0.0246,-0.0299,-0.0389,-0.0446,-0.0433,-0.0452,-0.0447,-0.0443,-0.0432,-0.0432,-0.0432,-0.0432,0,0.0477,0.0483,0.0519,0.059,0.0637,0.0693,0.0748,0.0804,0.0813,0.0846,0.0882,0.0846,0.0596,0.0358,0.0023,-0.0156,-0.0351,-0.0392,-0.0395,-0.0416,-0.0384,-0.0401,-0.0398,-0.0429,-0.043,-0.043,-0.043,-0.043,0.0514,0.0548,0.0595,0.0665,0.0725,0.0809,0.087,0.0942,0.1023,0.108,0.1046,0.0999,0.0725,0.0302,0.0004,-0.0322,-0.0327,-0.0452,-0.0452,-0.0452,-0.0434,-0.0403,-0.0447,-0.0448,-0.0448,-0.0448,-0.0448,0,0.056,0.06,0.0669,0.0749,0.0826,0.0849,0.0963,0.1028,0.1136,0.1184,0.1208,0.0961,0.0693,0.0369,-0.0104,-0.0385,-0.0424,-0.048,-0.0466,-0.0465,-0.0465,-0.0448,-0.0466,-0.0466,-0.0467,-0.0468,0,0,0.0583,0.0654,0.069,0.0817,0.0881,0.099,0.1059,0.1158,0.1218,0.1266,0.1245,0.1191,0.08,0.0463,0.0078,-0.0195,-0.0272,-0.0256,-0.0212,-0.015,-0.0147,-0.0419,-0.0387,0,0,0,0,0]}],[{"header":{"parameterUnit":"m.s-1","parameterCategory":2,"la1":30.2991,"la2":30.254,"lo1":-89.0895,"lo2":-89.0444,"dy":0.0017,"dx":0.0017,"nx":28,"ny":28,"refTime":"2025-01-01T03:00:00:Z","depth":"4","parameterNumber":2,"parameterNumberName":"U-component_of_CURRENTS"},"data":[0,0,0,0,0,0,0,0,0,0,0,0,0,0,0,0,0,0,0,0,0,0,0,0,0,0,0,0,0,0,0,0,0,0,0,0,0,0,0,0,0,0,0,0,0,0,0,0,0,0,0,0,0,0,0,0,0,0,0.1555,0.1556,0,0.1625,0.1626,0.1626,0.1682,0.1683,0.1684,0.1684,0.1763,0.1764,0.1765,0,0,0,0,0,0,0,0,0,0,0,0,0,0.1466,0.1467,0.1555,0.1556,0.1557,0.1625,0.1626,0.1627,0.1682,0.1683,0.1684,0.1685,0.1762,0.1764,0.1765,0,0,0,0,0,0,0,0,0,0,0,0,0,0.1516,0.1468,0.1555,0.1594,0.1598,0.1625,0.1626,0.1627,0.1682,0.1683,0.1684,0.1685,0.1761,0.1764,0.1766,0.1759,0,0,0.1772,0.1773,0,0,0,0,0,0,0,0,0.1513,0.1519,0.1587,0.1591,0.1596,0.1647,0.1623,0.1672,0.1682,0.1649,0.1684,0.1685,0.1725,0.173,0.1739,0.1763,0.1766,0.1773,0.1774,0.1775,0.1775,0,0,0,0,0,0,0,0.151,0.1516,0.1581,0.1588,0.1593,0.1607,0.1615,0.1633,0.1679,0.1652,0.1656,0.1666,0.1727,0.1737,0.1741,0.1767,0.1773,0.1774,0.1776,0.1777,0.1882,0.1883,0,0,0,0,0,0,0.1503,0.1513,0.1579,0.1584,0.1558,0.1608,0.1617,0.1629,0.1679,0.1688,0.1665,0.1668,0.1733,0.1739,0.1744,0.1827,0.1775,0.1777,0.1778,0.188,0.1882,0.1884,0,0,0,0,0,0,0.15,0.1508,0.1576,0.1551,0.1561,0.1608,0.1621,0.1629,0.1674,0.1689,0.1698,0.1704,0.1734,0.1741,0.1792,0.1827,0.1778,0.178,0.1879,0.1881,0.1883,0.1936,0,0,0,0,0,0,0.1498,0.1507,0.153,0.155,0.1562,0.1613,0.1621,0.163,0.1676,0.1682,0.1725,0.1732,0.1735,0.1789,0.1795,0.1829,0.1782,0.1877,0.188,0.1882,0.1932,0.194,0.1946,0,0,0,0,0,0.1494,0.1512,0.1531,0.154,0.1587,0.1614,0.1622,0.1657,0.1678,0.17,0.1734,0.1732,0.1811,0.1792,0.1798,0.1834,0.1875,0.1879,0.1882,0.1929,0.1938,0.1946,0,0,0,0,0,0,0.1485,0.152,0.1541,0.157,0.1602,0.1625,0.1654,0.1675,0.172,0.1739,0.1751,0.176,0.1817,0.1818,0.1797,0.1873,0.1843,0.1847,0.1876,0.1885,0.1892,0.1896,0.1783,0,0,0,0,0,0.1494,0.152,0.1551,0.158,0.1599,0.1634,0.1657,0.1683,0.1716,0.1738,0.1768,0.18,0.1829,0.1852,0.1875,0.1916,0.1922,0.1943,0.195,0.1956,0.1964,0.1995,0.2005,0.1895,0.1895,0.1895,0,0,0.15,0.1523,0.1541,0.1581,0.1612,0.164,0.1652,0.1697,0.1731,0.1738,0.1804,0.1828,0.1846,0.1894,0.1919,0.1904,0.1993,0.196,0.1965,0.197,0.2,0.201,0.202,0.1897,0.1897,0.1896,0,0,0.1511,0.1548,0.1572,0.1601,0.1651,0.1669,0.1689,0.1734,0.1772,0.1826,0.1843,0.1891,0.1934,0.1956,0.1969,0.2027,0.2028,0.2039,0.2081,0.2111,0.212,0.2128,0.216,0.217,0.2043,0.2043,0.2043,0,0.152,0.1553,0.1584,0.1612,0.1643,0.1684,0.1717,0.1753,0.1812,0.1848,0.1857,0.1942,0.196,0.2015,0.2041,0.2043,0.2062,0.2047,0.212,0.2128,0.2135,0.2165,0.2176,0.2046,0.2046,0.2046,0.2045,0,0.1537,0.1579,0.1597,0.1646,0.1681,0.1719,0.1766,0.1818,0.1865,0.1898,0.1979,0.2009,0.2059,0.2075,0.2079,0.2147,0.2145,0.2123,0.2097,0.2149,0.2178,0.2188,0.2051,0.2049,0.2049,0.2048,0,0,0.1514,0.1594,0.1605,0.164,0.1708,0.1734,0.18,0.1863,0.1915,0.1978,0.2045,0.2102,0.2132,0.2149,0.2167,0.2199,0.2273,0.2194,0.2194,0.2223,0.2353,0.2233,0.2232,0.2269,0.227,0.2272,0.2356,0,0.1524,0.1579,0.1619,0.1683,0.1718,0.1781,0.1832,0.19,0.1963,0.2037,0.209,0.2157,0.2155,0.2197,0.223,0.2267,0.2302,0.2253,0.23,0.2302,0.2185,0.224,0.2278,0.2363,0.2366,0.2367,0.2368,0,0.1523,0.1565,0.1626,0.1711,0.1734,0.178,0.188,0.1935,0.2037,0.2091,0.2168,0.2211,0.2293,0.2273,0.2361,0.2334,0.2355,0.237,0.2373,0.2247,0.22,0.2298,0.2387,0.2385,0.2384,0.2383,0.2382,0,0.1482,0.1568,0.162,0.165,0.1745,0.18,0.1861,0.1961,0.202,0.2143,0.22,0.2284,0.235,0.2387,0.2437,0.2411,0.252,0.2476,0.2385,0.2378,0.2437,0.2427,0.253,0.253,0.253,0.253,0.2529,0,0.1459,0.1506,0.1615,0.1642,0.1711,0.1793,0.1879,0.1953,0.2067,0.2133,0.2234,0.2294,0.2385,0.2455,0.2472,0.2469,0.255,0.2405,0.2392,0.2459,0.2451,0.2445,0.2434,0.2533,0.2532,0.2531,0.2531,0,0.1402,0.1472,0.1538,0.1654,0.1694,0.175,0.1884,0.194,0.2061,0.2157,0.2204,0.2334,0.242,0.2495,0.2571,0.2506,0.2519,0.2497,0.2593,0.2582,0.2346,0.2337,0.2386,0.2382,0.2379,0.2377,0.2375,0,0.1374,0.1403,0.1532,0.1574,0.1635,0.1731,0.179,0.1922,0.1982,0.2158,0.2189,0.2332,0.2402,0.2413,0.2496,0.2527,0.2497,0.2484,0.2382,0.235,0.2333,0.2328,0.2324,0.237,0.2369,0.2368,0.2368,0,0.1319,0.1378,0.1432,0.152,0.1595,0.1659,0.1762,0.1789,0.1936,0.2064,0.2125,0.2178,0.2276,0.2328,0.2385,0.2394,0.2476,0.2451,0.2456,0.236,0.2331,0.2316,0.2315,0.2357,0.2359,0.236,0.236,0,0.1281,0.1304,0.1386,0.1448,0.1535,0.1568,0.1628,0.1699,0.1768,0.1953,0.1971,0.212,0.2249,0.2263,0.2311,0.2321,0.2271,0.2179,0.2197,0.2209,0.2113,0.2048,0.1985,0,0,0,0,0,0.1234,0.125,0.1307,0.1367,0.1448,0.1494,0.16,0.1661,0.1798,0.1793,0.1875,0.1955,0.2025,0.2104,0.2079,0.2242,0.2287,0.2203,0.219,0.2299,0.2311,0.2215,0,0,0,0,0,0,0.1202,0.1253,0.1274,0.1287,0.1311,0.1381,0.1439,0.1529,0.153,0.1678,0.1726,0.1843,0.1942,0.2023,0.2044,0.2069,0.2022,0.23,0.2296,0.2293,0.2304,0.2313,0.2218,0,0,0,0,0]},{"header":{"parameterUnit":"m.s-1","parameterCategory":2,"la1":30.2991,"la2":30.254,"lo1":-89.0895,"lo2":-89.0444,"dy":0.0017,"dx":0.0017,"nx":28,"ny":28,"refTime":"2025-01-01T03:00:00:Z","depth":"4","parameterNumber":3,"parameterNumberName":"V-component_of_CURRENTS"},"data":[0,0,0,0,0,0,0,0,0,0,0,0,0,0,0,0,0,0,0,0,0,0,0,0,0,0,0,0,0,0,0,0,0,0,0,0,0,0,0,0,0,0,0,0,0,0,0,0,0,0,0,0,0,0,0,0,0,0,0.0146,0.0145,0,0.0087,0.0087,0.0086,0.0052,0.0052,0.0052,0.0052,-0.0015,-0.0016,-0.0018,0,0,0,0,0,0,0,0,0,0,0,0,0,0.0184,0.0183,0.0146,0.0145,0.0144,0.0087,0.0087,0.0086,0.0052,0.0052,0.0052,0.0052,-0.0014,-0.0016,-0.0018,0,0,0,0,0,0,0,0,0,0,0,0,0,0.015,0.0183,0.0146,0.0121,0.0118,0.0088,0.0087,0.0086,0.0052,0.0052,0.0052,0.0052,-0.0014,-0.0016,-0.0019,-0.0031,0,0,-0.0026,-0.0027,0,0,0,0,0,0,0,0,0.0152,0.0149,0.0125,0.0122,0.0119,0.0077,0.0075,0.0046,0.0052,0.0077,0.0052,0.0052,0.0015,0.001,-0.0,-0.0034,-0.0037,-0.0026,-0.0028,-0.0029,-0.003,0,0,0,0,0,0,0,0.0155,0.0151,0.0122,0.0124,0.0121,0.0097,0.0093,0.007,0.0048,0.0075,0.0072,0.0066,0.0014,0.0002,-0.0002,-0.0038,-0.0026,-0.0029,-0.003,-0.0031,-0.0075,-0.0075,0,0,0,0,0,0,0.0165,0.0154,0.0124,0.0121,0.0136,0.0097,0.0092,0.0091,0.0048,0.0041,0.0066,0.0065,0.0007,0.0001,-0.0005,-0.0,-0.0029,-0.0031,-0.0033,-0.0075,-0.0075,-0.0074,0,0,0,0,0,0,0.0166,0.0163,0.0127,0.0136,0.0129,0.0097,0.0095,0.009,0.008,0.0042,0.0035,0.0063,0.0006,-0.0001,-0.0018,-0.0004,-0.0032,-0.0035,-0.0076,-0.0075,-0.0075,-0.0005,0,0,0,0,0,0,0.0167,0.0164,0.0167,0.0137,0.0129,0.0118,0.0095,0.0089,0.0076,0.0074,0.0037,0.003,0.0006,-0.0014,-0.0021,-0.0008,-0.0037,-0.0076,-0.0075,-0.0075,-0.0008,-0.0002,0.0002,0,0,0,0,0,0.0169,0.0177,0.0168,0.0164,0.0134,0.0118,0.0113,0.0088,0.0077,0.0078,0.0053,0.0031,-0.0015,-0.0016,-0.0024,-0.0011,-0.0076,-0.0076,-0.0075,-0.001,-0.0004,0.0002,0,0,0,0,0,0,0.0194,0.0174,0.0162,0.0164,0.0146,0.0113,0.0112,0.0093,0.0073,0.0071,0.0034,0.0026,0.0016,-0.0009,-0.0009,-0.0023,-0.0049,-0.0049,0.0003,0.0009,0.0014,0.0027,-0.0039,0,0,0,0,0,0.0202,0.0203,0.0178,0.0179,0.0174,0.0143,0.0133,0.0117,0.0094,0.0085,0.0058,0.0031,0.0012,0.0003,-0.0022,-0.0028,-0.0059,-0.0026,-0.0021,-0.0016,-0.0011,-0.0039,-0.0036,-0.0072,-0.0072,-0.0072,0,0,0.0211,0.02,0.0201,0.0184,0.0169,0.017,0.0137,0.0129,0.0132,0.0081,0.0078,0.0046,0.0013,0.0006,-0.0001,-0.0011,-0.0024,-0.0015,-0.0011,-0.0009,-0.0038,-0.0035,-0.0032,-0.0071,-0.0072,-0.0072,0,0,0.0235,0.0224,0.0234,0.0225,0.0208,0.0191,0.0192,0.0164,0.0155,0.0144,0.0111,0.0091,0.0058,0.0041,0.0027,0.0045,0.0002,0.0035,0.0076,0.0049,0.0052,0.0054,0.0013,0.0011,0.0041,0.0042,0.0042,0,0.0247,0.0256,0.0235,0.0243,0.0242,0.0206,0.0219,0.0207,0.0176,0.0172,0.0154,0.0106,0.0078,0.0072,0.0078,0.0059,0.0028,0.0058,0.0057,0.0058,0.0059,0.0016,0.0013,0.0045,0.0045,0.0044,0.0044,0,0.0278,0.0286,0.0293,0.0294,0.0291,0.0295,0.0278,0.0274,0.0255,0.0235,0.022,0.0178,0.015,0.0139,0.0114,0.0111,0.0081,0.0065,0.0045,0.0067,0.002,0.0016,0.005,0.0049,0.0048,0.0047,0,0,0.0303,0.0313,0.0316,0.0328,0.0319,0.0321,0.0333,0.0329,0.0336,0.0303,0.0305,0.0269,0.0236,0.0218,0.0182,0.016,0.0138,0.0121,0.0118,0.0086,0.0065,0.0035,0.0026,0.0122,0.0122,0.0122,0.0026,0,0.0333,0.0365,0.0361,0.0392,0.0407,0.039,0.0407,0.0398,0.0379,0.0371,0.033,0.0314,0.027,0.0257,0.0229,0.0158,0.013,0.0164,0.0042,0.0038,0.0014,0.0022,0.0121,0.0023,0.0022,0.0021,0.002,0,0.0362,0.0381,0.0419,0.0446,0.0452,0.0467,0.0482,0.0492,0.0474,0.0456,0.0427,0.0385,0.0346,0.0309,0.0206,0.0227,0.0155,0.0098,0.0093,0.0039,0.0,-0.0005,0.0011,0.0012,0.0013,0.0013,0.0014,0,0.0388,0.0421,0.0455,0.0463,0.0487,0.0506,0.0521,0.0516,0.0532,0.0507,0.0501,0.0442,0.0411,0.0322,0.02,0.0202,0.0078,0.0065,-0.0031,-0.0035,-0.001,-0.0012,-0.0002,-0.0002,-0.0001,-0.0001,-0.0001,0,0.0415,0.0443,0.0472,0.0491,0.0538,0.0544,0.0585,0.0584,0.0591,0.0607,0.0548,0.0534,0.0413,0.0326,0.0216,0.0072,0.0085,-0.0026,-0.0058,0.0019,0.0022,-0.0014,-0.0015,-0.0005,-0.0004,-0.0003,-0.0003,0,0.043,0.045,0.0492,0.0533,0.0551,0.0583,0.0633,0.0659,0.0657,0.0674,0.0671,0.0598,0.048,0.0345,0.0188,0.0091,-0.0041,-0.0096,-0.0014,-0.004,-0.0142,-0.0137,-0.0207,-0.0209,-0.021,-0.0212,-0.0213,0,0.0438,0.0461,0.0521,0.0551,0.0571,0.0622,0.0662,0.0687,0.0712,0.0708,0.0715,0.062,0.055,0.0309,0.016,-0.0058,-0.0088,-0.0164,-0.014,-0.0137,-0.0161,-0.0154,-0.0148,-0.0215,-0.0215,-0.0216,-0.0216,0,0.0449,0.0471,0.0507,0.0574,0.0622,0.0677,0.0731,0.0756,0.0783,0.0785,0.0746,0.0628,0.0489,0.0306,0.013,-0.0023,-0.0117,-0.018,-0.0178,-0.0156,-0.0147,-0.0168,-0.016,-0.0221,-0.0221,-0.022,-0.022,0,0.0454,0.0478,0.0529,0.0586,0.0651,0.0708,0.074,0.077,0.0799,0.0797,0.0779,0.0639,0.0562,0.0323,0.0163,0.0005,-0.0032,-0.0082,-0.0085,-0.0081,-0.0018,0.0013,-0.0038,0,0,0,0,0,0.0452,0.0482,0.0537,0.0601,0.0668,0.0709,0.0776,0.0803,0.0831,0.0811,0.08,0.0673,0.0439,0.034,0.0178,0.0122,-0.007,-0.0076,-0.0132,-0.025,-0.0244,-0.0194,0,0,0,0,0,0,0.0449,0.0499,0.053,0.0603,0.065,0.0726,0.0772,0.0796,0.0785,0.0791,0.0674,0.0622,0.0398,0.0534,0.0173,0.0124,0.0063,-0.018,-0.0184,-0.0254,-0.0248,-0.0243,-0.019,0,0,0,0,0]}]]